Location: Newark
(45.4422°N, 16.2769°E)
Time: 11:43:25
(UTC+00:00)

Courier 1B - Pass Details

Date: 14 December 2019
Orbit: 962 x 1209 km, 28.3° (Epoch: 17 January)

Event Time Altitude Azimuth Distance (km) Brightness Sun altitude
Rises 18:18:10 0° 216° (SW) 3,786 11.1 -31.6°
Reaches altitude 10° 18:22:15 10° 193° (SSW) 2,889 10.1 -32.3°
Enters shadow 18:24:18 14° 177° (S) 2,655 9.7 -32.7°
Maximum altitude 18:25:49 14° 163° (SSE) 2,614 - -33.0°
Drops below altitude 10° 18:29:29 10° 132° (SE) 2,987 - -33.6°
Sets 18:33:50 0° 110° (ESE) 4,001 - -34.4°
